BLACK ARROW R/B

Satellite information

Favourite Embed

Satellite Type and Status

ROCKET BODYIN ORBIT

Key statistics

Satellite BLACK ARROW R/B at a glance.

Uptime

19730

Days in orbit

Revolutions

≈ 14.0

Per day

Orbit

LEO

Low Earth Orbit

Inclination

82.0

Latest

Satellite identification and parameters

Extended collection of information and parameters for BLACK ARROW R/B.

Object identification

Identified? True

Debris? False

Object name: BLACK ARROW R/B

International designator: 1971-093B

Object number (NORAD): 5581

Object ID (CCSDS): 5581

Country: UNITED KINGDOM (UK)

Current information (Y/N): Y

RCS size: MEDIUM

Orbital parameters

Period: 102.873 minutes

Inclination: 82.0392 deg

SMA: 7272.656 km

Apoapsis: 1263.034 km

Periapsis: 526.009 km

RAAN: 164.5427 deg

Eccentricy: 0.05067094

Argument of periapsis: 274.0364 deg

Mean anomaly: 80.3057 deg

Mean motion: 13.99790918 rev/day

Mean motion (dot): 0.00001662 rev/day2

B* drag term: 0.00036310995 1/REarth

Two-line elements (TLE)

Creation date: Nov. 2, 2025, 5:34 p.m.

Reference frame: TEME

Reference center: EARTH

Epoch: Nov. 2, 2025, 2:14 a.m. UTC

TLE line 0: 0 BLACK ARROW R/B

TLE line 1: 1 05581U 71093B 25306.09350368 .00001662 00000-0 36311-3 0 9991

TLE line 2: 2 05581 82.0392 164.5427 0506709 274.0364 80.3057 13.99790918714828

Live tracking on map

Real-time ground track for satellite BLACK ARROW R/B.

In-orbit conjunctions

There are no conjunctions computed for BLACK ARROW R/B, at the moment. Check back to stay up to date, as we update our databases every day.

Go to all conjunctions

Associated space launch

British scientific satellite used to demonstrate technologies needed for communication satellites.

BLACK ARROW R/B was lifted into orbit during the mission ‘Black Arrow | Prospero’, on board a Black Arrow space rocket.

The launch took place on Oct. 28, 1971, 4:09 a.m. from Launch Area 5B.

For more information about the launch, click the button.

Launch to space Black Arrow | Prospero
Black Arrow | Prospero

Agency: N/A

Status: Launch Successful

Launch date: Oct. 28, 1971, 4:09 a.m. UTC

Rocket: Black Arrow

Launch pad: Launch Area 5B

Location: RAAF Woomera Range Complex

...

Latest news about this satellite

News about space launch
On the 50th anniversary of Black Arrow, British space industry is on the verge of a return

Fifty years ago, a small rocket lifted off from the Australian Outback on a mission of contradictions. While the launch of Black Arrow R3 with the Prospero satellite aboard would be Britain’s first successful satellite launch, it also marked the end of th...


Newsletter sign-up

Weekly statistics, charts and insights to help you stay on top of the space industry.